CW4541 Weather Reports


time (UTC)temp
C
wind
direction
speed
KPH
gust
KPH
rain 1hr
cm
rain 24hr
cm
rain mn
cm
humidity
%
barometer
mb
20260508100606 4 0 0.0 0.0 0.00 0.00 0.00 36 1024.2
20260508100112 4 0 0.0 0.0 0.00 0.00 0.00 37 1024.2
20260508090607 4 0 0.0 0.0 0.00 0.00 0.00 36 1024.3
20260508090111 4 0 0.0 0.0 0.00 0.00 0.00 36 1024.3
20260508080606 5 0 0.0 0.0 0.00 0.00 0.00 34 1025.0
20260508080111 5 0 0.0 0.0 0.00 0.00 0.00 33 1025.0
20260508070613 5 0 0.0 0.0 0.00 0.00 0.00 32 1025.3
20260508070111 5 0 0.0 0.0 0.00 0.00 0.00 33 1025.3
20260508060606 5 0 0.0 0.0 0.00 0.00 0.00 35 1025.5
20260508060112 5 0 0.0 0.0 0.00 0.00 0.00 35 1025.5
20260508050607 6 0 0.0 0.0 0.00 0.00 0.00 32 1025.8
20260508050111 6 0 0.0 0.0 0.00 0.00 0.00 32 1025.8
20260508040606 8 0 0.0 0.0 0.00 0.00 0.00 25 1025.8
20260508030606 12 0 0.0 0.0 0.00 0.00 0.00 18 1025.8
20260508030112 12 0 0.0 1.6 0.00 0.00 0.00 18 1025.8
20260508020606 13 0 0.0 0.0 0.00 0.00 0.00 16 1025.5
20260508020111 14 0 0.0 0.0 0.00 0.00 0.00 16 1025.4
20260508010606 17 0 4.8 19.3 0.00 0.00 0.00 11 1025.4
20260508010112 17 0 6.4 20.9 0.00 0.00 0.00 11 1025.4
20260508000606 17 0 14.5 24.1 0.00 0.00 0.00 11 1025.8
20260507230111 18 0 9.7 19.3 0.00 0.00 0.00 11 1026.4
20260507220606 17 0 4.8 16.1 0.00 0.00 0.00 9 1027.4
20260507210606 17 0 3.2 20.9 0.00 0.00 0.00 9 1028.6
20260507210111 17 0 8.0 20.9 0.00 0.00 0.00 9 1028.7
20260507190606 16 0 1.6 32.2 0.00 0.00 0.00 10 1030.4
20260507190111 16 0 4.8 32.2 0.00 0.00 0.00 10 1030.5
20260507180111 15 0 3.2 14.5 0.00 0.00 0.00 11 1031.6
20260507170606 13 0 1.6 8.0 0.00 0.00 0.00 15 1032.3
20260507170110 13 0 1.6 8.0 0.00 0.00 0.00 14 1032.4
20260507160605 11 0 0.0 9.7 0.00 0.00 0.00 19 1033.5
20260507160111 11 0 0.0 4.8 0.00 0.00 0.00 17 1033.6
20260507150606 9 0 0.0 1.6 0.00 0.13 0.00 20 1034.4
20260507150111 8 0 0.0 1.6 0.00 0.15 0.00 22 1034.4
20260507140606 4 0 0.0 3.2 0.00 0.23 0.00 30 1034.7
20260507140111 4 0 0.0 1.6 0.00 0.23 0.00 31 1034.7
20260507130606 1 0 0.0 3.2 0.00 0.23 0.00 37 1034.4
20260507130111 1 0 0.0 3.2 0.00 0.23 0.00 38 1034.4
20260507120605 -2 0 0.0 0.0 0.00 0.23 0.00 49 1033.9
20260507120110 -2 0 0.0 0.0 0.00 0.23 0.00 48 1033.8
20260507110605 -1 0 0.0 0.0 0.00 0.23 0.00 46 1033.1
20260507110110 -1 0 0.0 0.0 0.00 0.23 0.00 46 1033.1